EW8371 Weather Reports


Display with metric or nautical units.
time (UTC)temp
F
wind
direction
speed
MPH
gust
MPH
rain 1hr
in
rain 24hr
in
rain mn
in
humidity
%
barometer
mb
20260901041528 64 160 0.0 0.0 0.00 0.01 0.01 1 1014.1
20260901040023 64 140 0.0 0.0 0.00 0.01 0.01 1 1014.0
20260901034525 64 138 0.0 0.0 0.00 0.01 0.01 1 1014.3
20260901033053 64 140 0.0 0.0 0.00 0.01 0.01 1 1014.3
20260901031553 64 145 0.0 1.0 0.00 0.01 0.01 1 1014.4
20260901030036 64 125 0.0 0.0 0.00 0.01 0.01 1 1014.3
20260901024532 64 126 0.0 1.0 0.00 0.01 0.01 1 1014.3
20260901023029 64 160 0.0 0.0 0.00 0.01 0.01 1 1014.6
20260901021523 64 138 0.0 0.0 0.00 0.01 0.01 1 1014.8
20260901020016 64 134 0.0 0.0 0.00 0.01 0.01 1 1014.9
20260901014512 64 128 0.0 0.0 0.00 0.01 0.01 1 1014.9
20260901013008 64 130 0.0 1.0 0.00 0.01 0.01 1 1014.9
20260901011504 64 155 0.0 0.0 0.00 0.01 0.01 1 1014.9
20260901010057 64 165 0.0 0.0 0.00 0.01 0.01 1 1014.9
20260901004552 64 161 0.0 0.0 0.00 0.01 0.01 1 1014.7
20260901003048 64 135 0.0 0.0 0.00 0.01 0.01 1 1014.6
20260901001544 64 139 0.0 0.0 0.00 0.01 0.01 1 1014.5
20260901000036 64 139 0.0 0.0 0.00 0.01 0.01 1 1014.6
20260831234532 64 136 0.0 0.0 0.00 0.01 0.01 1 1014.6
20260831233027 64 146 0.0 3.0 0.00 0.01 0.01 1 1014.9
20260831231523 65 149 0.0 2.0 0.00 0.01 0.01 1 1015.0
20260831230016 65 140 0.0 1.0 0.00 0.01 0.01 1 1015.1
20260831224511 65 161 0.0 3.0 0.00 0.01 0.01 1 1015.2
20260831223006 66 150 2.0 5.0 0.00 0.02 0.01 1 1015.3
20260831221513 67 195 0.0 7.0 0.00 0.02 0.01 1 1015.4
20260831220058 68 216 0.0 4.0 0.00 0.02 0.01 1 1015.5
20260831214553 68 151 1.0 3.0 0.00 0.02 0.01 1 1015.5
20260831213054 69 142 0.0 0.0 0.00 0.03 0.01 1 1015.5
20260831211559 69 128 0.0 0.0 0.00 0.03 0.01 1 1015.5
20260831210037 69 125 0.0 0.0 0.00 0.03 0.01 1 1015.6
20260831204535 69 162 0.0 2.0 0.00 0.03 0.01 2 1015.5
20260831203035 68 169 1.0 7.0 0.00 0.03 0.01 5 1015.7
20260831201528 69 188 2.0 6.0 0.00 0.03 0.01 1 1015.7
20260831200023 69 157 1.0 4.0 0.00 0.03 0.01 4 1015.7
20260831194619 69 154 0.0 5.0 0.00 0.03 0.01 5 1016.0
20260831193042 69 178 1.0 3.0 0.00 0.03 0.01 7 1016.0
20260831191537 68 179 0.0 4.0 0.00 0.03 0.01 6 1016.1
20260831190030 69 197 2.0 5.0 0.00 0.03 0.01 10 1016.4
20260831184540 69 217 2.0 4.0 0.00 0.03 0.01 11 1016.7
20260831183021 69 186 2.0 4.0 0.00 0.03 0.01 8 1016.7
20260831181521 68 193 1.0 5.0 0.00 0.03 0.01 5 1016.7
20260831180010 68 154 2.0 6.0 0.00 0.03 0.01 1 1016.8
20260831174506 67 169 2.0 8.0 0.01 0.03 0.01 1 1017.1
20260831173101 67 156 4.0 9.0 0.01 0.03 0.01 1 1017.4
20260831171539 67 159 5.0 10.0 0.01 0.03 0.01 1 1017.5
20260831170054 68 157 3.0 6.0 0.01 0.03 0.01 1 1017.5
20260831164514 69 163 4.0 9.0 0.00 0.02 0.00 8 1017.5
20260831163011 70 148 4.0 8.0 0.00 0.02 0.00 17 1017.3
20260831161507 69 184 1.0 4.0 0.00 0.02 0.00 12 1017.5
20260831160002 69 142 1.0 4.0 0.00 0.02 0.00 12 1017.6
20260831154608 69 162 1.0 6.0 0.00 0.02 0.00 7 1017.7
20260831153051 69 227 0.0 3.0 0.00 0.02 0.02 15 1017.6
20260831151546 68 183 0.0 3.0 0.00 0.02 0.02 1 1017.9
20260831150041 67 197 0.0 3.0 0.00 0.02 0.02 1 1017.9
20260831144538 67 162 1.0 4.0 0.00 0.02 0.02 1 1017.8
20260831143035 68 168 2.0 5.0 0.00 0.02 0.02 1 1017.7
20260831141531 67 190 1.0 4.0 0.00 0.02 0.02 1 1017.8
20260831140032 67 169 1.0 4.0 0.00 0.02 0.02 1 1017.7
20260831134520 65 213 0.0 4.0 0.00 0.02 0.02 1 1017.9
20260831133015 64 156 1.0 5.0 0.00 0.02 0.02 1 1017.8
20260831131513 63 182 2.0 5.0 0.00 0.02 0.02 1 1017.7
20260831130006 63 147 0.0 2.0 0.00 0.02 0.02 1 1017.6
20260831124600 62 84 1.0 3.0 0.00 0.02 0.02 1 1017.7
20260831123056 62 83 0.0 1.0 0.00 0.02 0.02 1 1017.7
20260831121552 62 73 0.0 3.0 0.00 0.02 0.02 1 1017.7
20260831120048 61 84 0.0 3.0 0.00 0.02 0.02 1 1017.9
20260831114540 61 80 0.0 2.0 0.00 0.02 0.02 1 1018.1
20260831113036 61 74 0.0 3.0 0.00 0.02 0.02 1 1018.1
20260831111533 61 88 0.0 2.0 0.00 0.02 0.02 1 1017.8
20260831110027 60 76 0.0 0.0 0.00 0.02 0.02 1 1017.5
20260831104531 60 85 0.0 0.0 0.00 0.02 0.02 1 1017.3
20260831103036 61 84 0.0 0.0 0.00 0.02 0.02 1 1017.4
20260831101511 61 86 0.0 0.0 0.00 0.02 0.02 1 1017.2
20260831100010 61 111 0.0 0.0 0.00 0.02 0.02 1 1017.1
20260831094601 61 103 0.0 0.0 0.00 0.02 0.02 1 1017.0
20260831093059 61 109 0.0 1.0 0.00 0.02 0.02 1 1017.2
20260831091606 61 114 1.0 3.0 0.00 0.02 0.02 1 1017.1
20260831090059 61 128 1.0 3.0 0.00 0.02 0.02 1 1017.1
20260831084646 61 107 2.0 4.0 0.00 0.02 0.02 1 1017.1
20260831083022 61 113 0.0 2.0 0.00 0.02 0.02 1 1017.1
20260831081510 61 130 1.0 3.0 0.00 0.02 0.02 1 1017.1
20260831081508 61 131 1.0 3.0 0.00 0.02 0.02 1 1017.1
20260831080007 61 113 0.0 0.0 0.00 0.02 0.02 1 1016.8
20260831074557 61 105 0.0 0.0 0.00 0.02 0.02 1 1017.0
20260831073054 61 109 0.0 0.0 0.00 0.02 0.02 1 1017.0
20260831071553 61 115 0.0 1.0 0.00 0.02 0.02 1 1016.9
20260831070046 61 141 0.0 0.0 0.00 0.02 0.02 1 1016.8
20260831064542 61 146 0.0 0.0 0.00 0.02 0.02 1 1016.9
20260831063036 61 149 0.0 0.0 0.00 0.02 0.02 1 1016.9
20260831061532 61 150 0.0 0.0 0.00 0.02 0.02 1 1017.1
20260831060026 61 150 0.0 2.0 0.00 0.02 0.02 1 1017.2
20260831054527 61 193 0.0 0.0 0.00 0.02 0.02 1 1017.3
20260831053021 61 112 0.0 0.0 0.00 0.02 0.02 1 1017.3
20260831051513 62 112 0.0 0.0 0.00 0.02 0.02 1 1017.3
20260831050006 62 248 0.0 0.0 0.00 0.02 0.02 1 1017.3
20260831044505 62 300 0.0 0.0 0.00 0.02 0.02 1 1017.4
20260831043100 62 299 0.0 0.0 0.00 0.02 0.02 1 1017.6